Location: Allonzier-la-Caille
(46.0035°N, 6.1178°E)
Time: 02:40:37
(UTC+00:00)

Daily predictions for brighter satellites

Satellite Brightness Start Highest point End
(mag) Time Altitude Azimuth Time Altitude Azimuth Time Altitude Azimuth
Cosmos 1758 3.8 00:00:01 10° NNW 00:03:41 49° W 00:03:41 49° W
NOSS 2-2 (D) 4.4 00:01:33 10° NW 00:06:35 75° NE 00:11:37 19° SE
Cosmos 1867 3.6 00:05:01 46° SW 00:06:43 79° NW 00:12:14 10° NE
Cosmos 1461 3.1 00:02:49 10° NW 00:06:31 55° W 00:06:31 55° W
Cosmos 2221 Rocket 3.7 00:06:47 57° WSW 00:07:15 61° W 00:11:39 10° N
Cosmos 1674 Rocket 3.3 00:06:55 75° SSW 00:07:17 88° W 00:11:38 10° N
Cosmos 2298 Rocket 4.1 00:07:41 51° SSE 00:08:48 65° ESE 00:14:04 10° NNE
Cosmos 1674 3.2 00:10:51 46° WNW 00:10:51 46° WNW 00:14:23 10° N
USA 306 3.4 00:11:53 44° ESE 00:11:53 44° ESE 00:15:14 10° ENE
Cosmos 1238 Rocket 3.6 00:10:14 10° NNW 00:12:06 32° NW 00:12:06 32° NW
Thor Agena Rocket 4.4 00:09:04 10° NNE 00:14:02 40° E 00:15:34 32° SE
USA 307 3.5 00:15:20 42° ESE 00:15:20 42° ESE 00:18:40 10° ENE
ATLAS CENTAUR R/B 3.1 00:10:53 10° WNW 00:13:59 24° W 00:13:59 24° W
SL-16 R/B 4.0 00:16:08 16° SE 00:18:04 19° E 00:21:59 10° NE
ERBS 4.2 00:22:52 20° E 00:22:52 20° E 00:24:05 10° ENE
Cosmos 1980 3.8 00:20:38 46° S 00:22:09 64° ESE 00:27:45 10° NNE
Cosmos 1378 Rocket 3.6 00:22:19 58° WSW 00:22:52 64° W 00:27:18 10° N
Cosmos 2333 Rocket 3.5 00:19:42 18° WSW 00:23:03 33° NW 00:28:10 10° NNE
ATLAS 5 CENTAUR R/B 2.7 00:11:30 10° NW 00:23:23 70° SW 00:24:40 47° S
Cosmos 468 4.5 00:18:12 10° NNW 00:23:24 66° WSW 00:24:27 52° SSW
CZ-4C R/B 3.1 00:16:42 10° NW 00:23:57 60° WSW 00:27:53 33° S
Cosmos 1455 Rocket 4.3 00:20:12 10° N 00:24:20 36° ENE 00:26:10 25° ESE
USA 215 4.2 00:20:32 10° NE 00:26:44 47° NNW 00:32:57 10° W
Cosmos 332 Rocket 4.3 00:28:23 40° SE 00:29:21 46° ESE 00:33:56 10° NNE
NOSS 0 Rocket 3.9 00:29:23 42° SSW 00:31:43 89° WNW 00:38:01 10° NNE
USA 32 4.0 00:35:15 46° S 00:36:51 83° E 00:42:08 10° N
Meteor 2-10 Rocket 3.8 00:33:10 10° N 00:38:51 74° ENE 00:41:17 34° SSE
Cosmos 1975 Rocket 3.6 00:39:39 39° SE 00:40:46 50° E 00:45:05 10° NNE
Cosmos 1745 Rocket 4.2 00:36:27 10° NNW 00:42:29 54° W 00:44:35 37° SW
ADEOS Rocket 4.2 00:42:18 20° WSW 00:43:26 22° W 00:47:52 10° NW
Cosmos 839 Rocket 4.2 00:37:52 10° NW 00:44:15 74° WSW 00:49:12 23° SSE
USA 308 2.7 00:44:46 68° SSW 00:45:12 76° SE 00:49:23 10° ENE
Cosmos 2219 Rocket 3.7 00:42:56 16° W 00:46:23 28° NW 00:51:12 10° N
Cosmos 1025 Rocket 3.7 00:47:03 36° SE 00:48:15 47° E 00:52:23 10° NNE
Meteor 2-12 Rocket 4.5 00:44:09 10° NNW 00:50:09 65° W 00:52:27 38° SSW
Cosmos 1455 4.2 00:47:24 10° NNE 00:50:23 23° ENE 00:52:38 14° ESE
GP-B 3.0 00:52:37 10° N 00:57:03 75° W 00:58:07 51° SSW
Meteor 2-5 Rocket 4.0 00:55:38 31° SSE 00:58:18 62° E 01:03:54 10° NNE
Lacrosse 5 2.5 00:58:31 36° SSE 00:59:40 42° SE 01:04:28 10° ENE
CZ-2D R/B 2.6 00:54:46 10° NNE 01:00:02 52° E 01:02:28 29° SSE
Cosmos 1300 3.0 00:57:41 10° NNW 01:01:21 48° W 01:01:27 48° W
USA 267 3.9 01:02:15 30° SW 01:02:48 31° SW 01:08:29 10° WNW
SL-14 R/B 4.1 01:02:27 34° W 01:02:54 35° WNW 01:06:30 10° N
Cosmos 371 Rocket 4.0 01:06:03 31° WSW 01:07:49 43° WNW 01:12:28 10° N
USA 305 3.1 01:07:08 36° W 01:08:41 67° NNW 01:12:51 10° NE
Cosmos 1544 Rocket 4.1 01:06:24 10° N 01:10:47 56° ENE 01:13:10 25° SSE
USA 229 DEB 4.2 01:04:09 10° NW 01:11:11 46° WSW 01:15:06 27° S
USA 229 4.2 01:04:15 10° NW 01:11:16 47° WSW 01:15:15 27° S
Cosmos 2237 Rocket 2.5 01:11:28 30° SW 01:14:08 57° WNW 01:19:46 10° NNE
COSMOS 2428 4.4 01:12:17 13° W 01:16:11 25° NW 01:20:50 10° N
Cosmos 304 Rocket 4.2 01:17:17 34° WSW 01:19:05 53° WNW 01:23:50 10° NNE
AQUA 4.5 01:14:43 10° NNE 01:19:21 48° E 01:21:49 25° SSE
SL-16 R/B 2.6 01:14:42 16° SSE 01:19:45 79° ENE 01:26:01 10° NNW
Helios 1A 4.4 01:17:05 10° SE 01:20:55 36° ENE 01:24:48 10° N
Lacrosse 5 rocket 2.0 01:21:54 33° SSE 01:22:31 35° SE 01:26:12 10° ENE
SAR-Lupe-2 4.4 01:19:30 10° NNE 01:22:56 42° E 01:24:09 30° SSE
SME Rocket 3.4 01:24:34 39° SW 01:25:34 48° W 01:30:21 10° NNW
Cosmos 1953 4.2 01:23:46 10° NW 01:26:22 17° W 01:26:26 17° W
Cosmos 2074 Rocket 4.0 01:22:43 10° N 01:29:04 83° E 01:33:59 18° S
Resurs 1-4 Rocket 2.0 01:23:57 10° NNE 01:29:15 87° WNW 01:31:56 30° SSW
Cosmos 2297 3.9 01:27:57 10° NNW 01:33:45 76° ENE 01:39:28 10° SSE
Cosmos 1943 Rocket 2.1 01:28:03 10° NNW 01:33:47 87° WSW 01:39:27 10° SSE
CRYOSAT 2 4.4 01:38:47 21° SSE 01:42:05 81° E 01:46:59 10° N
Cosmos 2184 Rocket 3.9 01:37:39 10° N 01:43:57 80° W 01:48:45 18° S
Cosmos 2278 Rocket 3.5 01:40:19 10° NW 01:44:28 21° W 01:45:23 20° WSW
ADEOS II 2.2 01:39:55 10° NNE 01:45:11 71° ESE 01:48:40 22° S
IDEFIX/ARIANE 42P 3.0 01:40:51 10° NNE 01:46:06 60° ESE 01:49:52 19° S
USA 306 3.9 01:47:34 14° W 01:50:51 42° NNW 01:54:51 10° NE
Cosmos 2084 Rocket 3.6 01:49:14 28° WSW 01:50:59 52° NW 01:54:43 10° NNE
Cosmos 292 Rocket 4.2 01:48:10 22° S 01:51:10 55° ESE 01:55:52 10° NNE
USA 307 3.8 01:51:04 15° W 01:54:19 44° NNW 01:58:21 10° NE
ERBS 3.7 01:54:54 17° W 01:56:38 28° NNW 01:59:21 10° NNE
NPP 3.8 01:51:54 10° N 01:57:14 63° WNW 02:00:35 23° SW
Cosmos 2369 Rocket 2.7 01:53:28 10° NNW 01:59:01 61° ENE 02:04:33 10° SE
SL-16 R/B 2.3 01:58:00 23° SW 02:01:34 69° WNW 02:07:16 10° NNE
Cosmos 1455 Rocket 4.5 01:58:26 10° NW 02:01:56 23° W 02:03:15 20° WSW
CZ-4 R/B 4.4 01:57:46 10° N 02:02:09 42° WNW 02:04:41 22° SW
Cosmos 614 Rocket 3.9 01:57:29 10° NNW 02:02:42 82° WSW 02:07:55 10° SSE
Cosmos 2228 3.4 01:58:25 10° N 02:02:46 63° E 02:07:03 10° SSE
IRS-1D 4.3 01:57:51 10° NNE 02:03:04 52° E 02:07:54 12° S
EO 1 Del DPAF 3.0 01:59:49 10° NNE 02:03:21 83° ESE 02:05:17 25° S
Cosmos 2251 Rocket 3.9 01:59:26 10° NNW 02:04:42 66° ENE 02:09:57 10° SSE
Meteor 1-28 Rocket 3.1 02:03:36 21° S 02:05:58 67° WSW 02:09:42 10° NNW
Cosmos 1656 Rocket 4.3 02:03:03 10° NNW 02:08:25 57° ENE 02:13:44 10° SE
COSMOS 2455 2.9 02:04:48 20° SSW 02:09:05 78° ESE 02:15:09 10° NE
Cosmos 1536 Rocket 3.6 02:08:03 22° SSW 02:10:46 66° W 02:15:09 10° N
Nadezhda 1 Rocket 4.1 02:15:05 16° SSW 02:20:12 68° W 02:26:29 10° N
MSX 3.8 02:17:22 10° NNE 02:23:11 88° WNW 02:28:25 13° SSW
USA 308 4.3 02:21:16 10° W 02:25:07 34° NNW 02:28:59 10° NE
Cosmos 1603 4.5 02:19:49 10° S 02:25:10 47° ESE 02:30:35 10° NE
MOS 1 Rocket 3.9 02:23:22 19° SSW 02:25:47 32° W 02:29:41 10° NNW
Cosmos 1455 3.3 02:22:44 10° NNW 02:25:50 25° W 02:27:22 19° SW
Cosmos 1271 Rocket 3.1 02:26:08 10° NNW 02:29:47 43° W 02:32:45 15° SSW
Cosmos 1606 Rocket 3.6 02:29:31 10° N 02:33:58 89° ENE 02:38:20 10° S
ALOS 3.8 02:33:09 10° NNE 02:37:25 34° E 02:41:39 10° SSE
CZ-2C R/B 3.8 02:34:51 10° NNE 02:39:36 37° E 02:44:12 10° SSE
CZ-2D R/B 3.5 02:35:25 10° N 02:39:44 25° WNW 02:43:47 11° WSW
Lacrosse 5 2.6 02:37:42 10° WSW 02:42:38 48° NNW 02:47:35 10° NE
Helios 1B rocket 2.8 02:40:17 10° NNE 02:44:19 62° ESE 02:48:20 10° S
Cosmos 2366 rocket 4.2 02:40:03 10° N 02:46:14 75° E 02:52:25 10° SSE
Cosmos 2341 Rocket 4.1 02:40:22 10° N 02:46:46 78° W 02:53:09 10° S
BREEZE-M DEB (TANK) 3.0 02:47:13 12° SW 02:51:19 44° SSE 02:53:37 10° E
Meteor 2-1 Rocket 4.3 02:45:34 10° NNW 02:51:20 70° W 02:56:55 10° S
Cosmos 407 Rocket 3.5 02:47:18 10° NNW 02:52:40 86° WSW 02:57:55 10° SSE
SL-8 Rocket 4.0 02:47:10 10° N 02:53:31 83° W 02:59:50 10° S
SL-19 R/B 4.5 02:48:34 10° NNE 02:54:44 85° WNW 03:00:34 10° SSW
Cosmos 1328 3.8 02:52:30 10° SSW 02:56:25 69° W 03:00:25 10° N
Helios 1A 4.3 02:53:25 11° SW 02:56:30 23° W 02:59:53 10° NW
Cosmos 1943 3.3 02:50:51 10° SSW 02:56:33 90° SW 03:02:17 10° NNE
Cosmos 2237 Rocket 4.4 02:56:46 10° WNW 02:59:30 13° NW 03:02:15 10° N
Genesis I 3.3 02:56:08 10° NW 03:00:13 89° NE 03:04:12 10° SE
Lacrosse 5 rocket 2.2 02:57:48 10° W 03:01:31 40° NNW 03:05:28 10° NE
Meteor 1-29 4.5 03:00:21 10° NNE 03:03:21 33° E 03:06:19 10° SSE
Cosmos 1140 Rocket 3.5 02:58:22 10° NNW 03:03:36 67° WSW 03:08:46 10° S
SL-16 R/B 4.0 02:59:52 10° SW 03:04:02 18° W 03:08:13 10° NW
Resurs 1-4 Rocket 4.1 03:05:31 10° NNW 03:08:17 15° NW 03:11:03 10° W
Lacrosse 4 Rocket 3.4 03:05:21 10° SSE 03:08:52 25° ESE 03:12:20 10° NE
SeaSat 1 3.8 03:04:46 10° NE 03:09:19 36° ESE 03:13:49 10° S
Cosmos 1892 Rocket 3.7 03:05:47 10° SSW 03:10:12 66° W 03:14:42 10° N
IRS-1C 4.5 03:05:54 10° NNE 03:11:14 70° ESE 03:16:33 10° S
Cosmos 1726 Rocket 3.9 03:09:15 10° NNW 03:13:29 45° W 03:17:39 10° SSW
SL-08 R/B 4.2 03:10:23 10° SE 03:14:51 52° ENE 03:19:23 10° N
Cosmos 1954 Rocket 4.5 03:10:54 10° NNW 03:16:14 70° ENE 03:21:32 10° SSE
Cosmos 1943 Rocket 3.9 03:14:01 10° WNW 03:16:37 13° W 03:19:14 10° SW
FENGYUN 3A 3.7 03:12:00 10° NNE 03:17:25 86° WNW 03:22:48 10° SSW
NOSS 3-3 (A) 4.0 03:14:06 10° SW 03:19:46 72° NW 03:26:22 10° NE
NOSS 3-3 (C) 4.0 03:14:13 10° SW 03:19:52 73° NW 03:26:27 10° NE
